Regional Weather Roundup
Issued by NWS Albany, NY

Home | Current Version | Previous Version | Text Only | Print | Product List | Glossary On
Versions: 1 2 3 4 5 6 7 8 9 10 11 12 13 14 15 16 17 18 19 20 21 22 23 24 25 26 27 28 29 30 31 32 33 34 35 36 37 38 39 40 41 42 43 44 45 46 47 48 49 50
000
ASUS41 KALY 050810
RWRALY

NEW YORK STATE HOURLY WEATHER ROUNDUP
NATIONAL WEATHER SERVICE ALBANY NY
400 AM EDT SAT SEP 05 2015

NOTE: "FAIR" INDICATES FEW OR NO CLOUDS BELOW 12,000 FEET WITH NO
SIGNIFICANT WEATHER AND/OR NO OBSTRUCTIONS TO VISIBILITY.

NYZ032-033-038>043-046>054-057>066-NYZ062>081-050900-
EAST


CITY           SKY/WX    TMP DP  RH WIND       PRES   REMARKS
ALBANY         PTCLDY    64  55  72 CALM      30.23R
GLENS FALLS    CLEAR     57  55  93 CALM      30.23R FOG
POUGHKEEPSIE   CLOUDY    65  57  75 CALM      30.23S
MONTGOMERY     CLOUDY    69  62  78 CALM      30.23F
WHITE PLAINS   PTCLDY    64  58  80 N3        30.23S
ISLIP          CLEAR     63  59  87 N3        30.20S
NEW YORK CITY  PTCLDY    68  60  75 E8        30.22S
CENTRAL PARK   PTCLDY    70  61  73 VRB5      30.25S
$$

NYZ005>009-017-018-044>046-055-056-050900-
CENTRAL


CITY           SKY/WX    TMP DP  RH WIND       PRES   REMARKS
FULTON         PTCLDY    70  66  87 CALM      30.16S FOG
SYRACUSE       PTCLDY    68  66  93 E6        30.17R
ROME           CLEAR     64  61  90 SE3       30.22R
ELMIRA         CLOUDY    71  68  90 SE3       30.19R
BINGHAMTON     CLEAR     65  64  97 S5        30.24R FOG
MONTICELLO     MOCLDY    63  63 100 SE6       30.27S
$$

NYZ026>034-041>043-050900-
NORTH


CITY           SKY/WX    TMP DP  RH WIND       PRES   REMARKS
WATERTOWN      CLEAR     59  57  93 E3        30.16S
FORT DRUM      NOT AVBL
MASSENA        CLEAR     53  50  89 CALM      30.22R
SARANAC LAKE   CLEAR     44  43  96 CALM      30.25R
PLATTSBURGH    CLEAR     53  51  93 CALM      30.22R
$$

NYZ001>004-010>016-019>021-050900-
WEST


CITY           SKY/WX    TMP DP  RH WIND       PRES   REMARKS
NIAGARA FALLS  CLEAR     65  59  81 E3        30.11S
BUFFALO        CLEAR     67  63  87 CALM      30.12S
DUNKIRK        CLEAR     65  64  97 CALM      30.12R
JAMESTOWN      CLEAR     64  61  88 S5        30.18R
WELLSVILLE     PTCLDY    69  65  86 S6        30.24R FOG
ROCHESTER      CLEAR     64  61  90 SW5       30.14S
PENN YAN       PTCLDY    67  65  93 S5        30.18R
$$

             KEY
       WCI = WIND CHILL INDEX
       VSB = VISIBILITY
       HX  = HEAT INDEX
$$


USA.gov is the U.S. government's official web portal to all federal, state and local government web resources and services.